Tracking 31027 objects as of 19-Jul-2025
HD Live streaming from Space Station
objects crossing your sky now

STARLINK-5332

Track STARLINK-5332 now!
10-day predictions
STARLINK-5332 is classified as:


NORAD ID: 55285
Int'l Code: 2023-010S
Perigee: 576.8 km
Apogee: 581.5 km
Inclination: 70.0 °
Period: 96.1 minutes
Semi major axis: 6950 km
RCS: Unknown
Launch date: January 19, 2023
Source: United States (US)
Launch site: AIR FORCE WESTERN TEST RANGE (AFWTR)
Your satellite tracking list
FLOCK 4Q 34
Track 1 satellite(s)




NASA's NSSDC Master Catalog

Two Line Element Set (TLE):
1 55285U 23010S   25199.49383611 -.00000228  00000-0 -11325-4 0  9992
2 55285  69.9985 234.8655 0003382 272.1588  87.9184 14.98331310138377
Source of the keplerian elements: AFSPC